SCP
0 0 0 0 0 0 0 0 0 0 0 0 0 0 0 0 0 0 0 0 0 0 0 0 0 0 0 0 0 0 0 0 0 0 0 0 0 0 0 0 0 0 0 0
0 0 0 0 0 0 0 0 0 0 0 0 0 0 0 0 0 0 0 0 0 0 0 0 0 0 0 0 0 0 0 0 0 0 0 0 0 0 0 0 0 0 0 0
0 0 0 0 0 0 0 0 0 0 0 0 0 0 0 0 0 0 0 0 0 0 0 0 0 0 0 0 0 0 0 0 0 0 0 0 0 0 0 0 0 0 0 0
0 0 0 0 0 0 0 0 0 0 0 0 0 0 0 0 0 0 0 0 0 0 0 0 0 0 0 0 0 0 0 0 0 0 0 0 0 0 0 0 0 0 0 0
0 0 0 0 0 0 0 0 0 0 0 0 0 0 0 0 0 0 0 0 0 0 0 0 0 0 0 0 0 0 0 0 0 0 0 0 0 0 0 0 0 0 0 0
0 0 0 0 0 0 0 0 0 0 0 0 0 0 0 0 0 0 0 0 0 0 0 0 0 0 0 0 0 0 0 0 0 0 0 0 0 0 0 0 0 0 0 0
0 0 0 0 0 0 0 0 0 0 0 0 0 0 0 0 0 0 0 0 0 0 0 0 0 0 0 0 0 0 0 0 0 0 0 0 0 0 0 0 0 0 0 0
0 0 0 0 0 0 0 0 0 0 0 0 0 0 0 0 0 0 0 0 0 0 0 0 0 0 0 0 0 0 0 0 0 0 0 0 0 0 0 0 0 0 0 0
0 0 0 0 0 0 0 0 0 0 0 0 0 0 0 0 0 0 0 0 0 0 0 0 0 0 0 0 0 0 0 0 0 0 0 0 0 0 0 0 0 0 0 0
0 0 0 0 0 0 0 0 0 0 0 0 0 0 0 0 0 0 0 0 0 0 0 0 0 0 0 0 0 0 0 0 0 0 0 0 0 0 0 0 0 0 0 0
0 0 0 0 0 0 0 0 0 0 0 0 0 0 0 0 0 0 0 0 0 0 0 0 0 0 0 0 0 0 0 0 0 0 0 0 0 0 0 0 0 0 0 0
0 0 0 0 0 0 0 0 0 0 0 0 0 0 0 0 0 0 0 0 0 0 0 0 0 0 0 0 0 0 0 0 0 0 0 0 0 0 0 0 0 0 0 0
0 0 0 0 0 0 0 0 0 0 0 0 0 0 0 0 0 0 0 0 0 0 0 0 0 0 0 0 0 0 0 0 0 0 0 0 0 0 0 0 0 0 0 0
0 0 0 0 0 0 0 0 0 0 0 0 0 0 0 0 0 0 0 0 0 0 0 0 0 0 0 0 0 0 0 0 0 0 0 0 0 0 0 0 0 0 0 0
0 0 0 0 0 0 0 0 0 0 0 0 0 0 0 0 0 0 0 0 0 0 0 0 0 0 0 0 0 0 0 0 0 0 0 0 0 0 0 0 0 0 0 0
0 0 0 0 0 0 0 0 0 0 0 0 0 0 0 0 0 0 0 0 0 0 0 0 0 0 0 0 0 0 0 0 0 0 0 0 0 0 0 0 0 0 0 0
0 0 0 0 0 0 0 0 0 0 0 0 0 0 0 0 0 0 0 0 0 0 0 0 0 0 0 0 0 0 0 0 0 0 0 0 0 0 0 0 0 0 0 0
0 0 0 0 -0 0 0 0 0 0 0 0 0 0 0 0 0 0 0 0 0 0 0 0 0 0 0 0 0 0 0 0 0 0 0 0 0 0 0 0 0 0 0 0
0 0 0 0 0 0 0 0 0 0 0 0 0 0 0 0 0 0 0 0 0 0 0 0 0 0 0 0 0 0 0 0 0 0 0 0 0 0 0 0 0 0 0 0
0 0 0 0 0 0 0 0 0 0 0 0 0 0 0 0 0 0 0 0 0 0 0 0 0 0 0 0 0 0 0 0 0 0 0 0 0 0 0 0 0 0 0 0
0 0 0 0 0 0 0 0 0 0 0 0 0 0 0 0 0 0 0 0 0 0 0 0 0 0 0 0 0 0 0 0 0 0 0 0 0 0 0 0 0 0 0 0
0 0 0 0 0 0 0 0 0 0 0 0 0 0 0 0 0 0 0 0 0 0 0 0 0 0 0 0 0 0 0 0 0 0 0 0 0 0 0 0 0 0 0 0
0 0 0 0 0 0 0 0 0 0 0 0 0 0 0 0 0 0 0 0 0 0 0 0 0 0 0 0 0 0 0 0 0 0 0 0 0 0 0 0 0 0 0 0
0 0 0 0 0 0 0 0 0 0 0 0 0 0 0 0 0 0 0 0 0 0 0 0 0 0 0 0 0 0 0 0 0 0 0 0 0 0 0 0 0 0 0 0
0 0 0 0 0 0 0 0 0 0 0 0 0 0 0 0 0 0 0 0 0 0 0 0 0 0 0 0 0 0 0 0 0 0 0 0 0 0 0 0 0 0 0 0
-0 0 0 0 0 0 0 0 0 0 0 0 0 0 0 0 0 0 0 0 0 0 0 0 0 0 0 0 0 0 0 0 0 0 0 0 0 0 0 0 0 0 0 0
-0 -0 -0 0 0 0 0 0 0 0 0 0 0 0 0 0 0 0 0 0 0 0 0 0 0 0 0 0 0 0 0 0 0 0 0 0 0 0 0 0 0 0 0 0
Wind_Speed
6 5 3 5 6 7 8 9 10 11 10 13 10 10 9 7 6 6 6 7 8 8 7 7 6 6 6 6 5 5 5 5 6 5 4 4 4 4 3 3 3 3 3 4
3 4 4 6 8 9 10 7 9 7 11 12 8 4 5 7 7 8 9 9 9 8 8 8 8 7 6 6 6 5 5 6 5 4 4 4 4 4 3 4 4 3 4 4
5 4 2 7 11 12 8 9 10 13 15 8 6 9 11 11 10 11 10 9 9 9 9 9 9 8 8 7 5 5 6 5 5 4 5 5 4 4 4 4 4 4 4 4
2 1 7 12 5 7 9 10 11 10 9 9 12 10 7 8 10 11 9 9 9 8 8 7 7 7 6 5 5 5 5 5 5 5 5 4 4 5 5 4 4 4 5 5
4 3 9 11 7 6 7 10 10 13 12 7 4 1 4 7 9 10 10 9 8 8 7 7 7 7 6 5 5 5 5 6 5 5 5 5 5 6 5 4 5 5 5 5
4 3 6 11 5 3 4 7 8 9 11 6 8 4 8 7 8 8 7 6 6 6 5 6 6 7 7 6 5 6 6 5 4 4 5 5 6 5 3 4 5 4 5 5
5 5 10 11 4 4 3 9 5 5 7 10 11 10 6 6 7 7 7 6 6 7 6 6 6 8 7 6 6 6 4 3 2 2 3 4 3 3 3 3 3 4 5 5
6 5 11 5 4 7 8 5 4 4 6 10 9 4 3 7 8 8 7 6 7 7 5 4 6 8 7 6 5 3 3 2 1 1 1 1 1 2 2 2 3 4 4 5
10 10 7 2 6 6 4 5 6 4 5 7 6 6 6 6 7 8 8 7 6 7 7 4 5 7 7 5 4 4 4 2 1 1 0 0 0 1 1 1 1 2 2 4
5 9 8 7 7 6 5 6 7 6 5 7 8 7 7 7 7 7 7 7 7 8 8 5 4 5 5 4 5 5 4 3 2 2 1 2 1 1 1 1 1 2 2 3
6 9 9 7 4 5 6 6 6 5 4 7 8 7 9 9 9 9 7 7 8 9 9 7 6 5 4 5 6 6 5 3 3 2 2 2 2 1 2 2 2 1 2 2
9 8 6 10 9 8 8 9 7 6 6 5 8 9 9 9 9 9 9 8 8 8 9 8 7 6 5 5 6 7 5 3 2 2 2 2 2 2 4 3 7 8 7 5
9 9 8 10 10 8 8 10 9 8 8 8 7 8 9 8 8 9 9 10 11 10 10 9 8 6 5 5 6 7 6 4 3 3 2 2 2 2 2 4 6 8 11 11
7 7 9 9 10 11 10 10 9 9 8 8 7 6 7 7 8 10 12 11 10 11 10 9 8 7 5 6 7 7 6 6 5 3 3 3 2 2 2 2 3 4 7 11
8 7 9 11 11 11 9 7 8 8 7 6 5 7 9 11 12 12 10 10 11 11 10 10 9 7 6 7 8 8 6 4 4 4 3 3 3 3 3 3 3 3 3 6
11 9 8 8 10 11 9 8 8 10 8 7 6 8 9 10 9 9 11 14 15 14 13 11 10 8 7 8 8 6 6 11 8 5 4 4 3 3 3 3 3 3 3 3
7 8 10 11 12 12 10 9 9 10 8 8 8 6 7 9 10 11 11 10 10 11 11 11 10 9 8 8 8 6 5 7 11 6 4 4 3 3 3 3 3 3 2 3
6 7 8 9 11 12 12 11 10 9 8 7 4 7 10 13 14 13 12 11 10 9 8 9 10 9 9 8 7 6 6 5 5 5 4 3 3 3 3 2 2 2 2 3
9 9 10 10 10 10 10 10 10 9 7 4 6 8 10 10 11 13 14 14 15 13 9 9 16 11 9 10 10 6 6 6 5 4 4 5 4 2 2 2 1 1 1 1
11 12 12 12 12 10 10 10 10 8 5 3 5 5 7 9 12 14 14 12 10 9 11 12 12 9 9 10 12 6 6 7 6 5 4 3 3 2 2 1 1 0 0 0
11 12 12 13 13 12 10 9 7 7 5 3 5 7 8 9 12 13 12 8 6 9 13 17 10 8 7 9 11 6 6 6 5 5 4 4 3 2 2 1 1 1 1 1
9 10 12 12 12 12 11 8 6 6 4 2 3 5 8 9 10 9 7 7 10 14 10 8 7 11 12 12 6 6 6 6 5 4 4 4 3 3 2 2 2 1 1 1
9 9 10 10 11 11 11 8 6 5 3 2 4 6 9 9 9 10 8 7 10 16 10 7 12 18 18 9 6 6 6 6 5 5 4 4 4 3 3 2 2 2 2 2
9 9 9 9 9 9 10 9 7 4 3 1 1 4 7 7 5 3 5 15 17 16 8 11 17 18 15 6 6 5 5 5 5 4 4 4 3 3 3 2 2 2 2 2
8 8 8 8 8 7 7 7 5 3 2 1 2 3 3 4 6 7 8 11 17 15 8 13 19 17 9 6 6 5 5 5 5 4 4 4 3 3 3 2 2 2 2 2
8 7 7 6 6 5 5 4 3 2 0 1 1 2 3 4 6 8 8 10 12 13 8 6 8 9 6 6 6 6 5 5 4 4 4 4 4 3 3 2 2 2 2 2
7 6 5 5 5 4 3 3 2 2 1 2 2 2 3 5 6 7 8 8 8 7 6 6 6 6 6 5 5 5 4 4 4 4 4 4 3 3 3 3 2 1 1 1
Wind_Direction
234 236 211 227 219 186 193 196 198 227 228 247 243 230 230 224 213 206 210 206 203 205 208 207 209 213 216 223 215 199 196 212 228 234 236 243 252 257 260 264 267 272 284 293
274 266 230 249 247 217 218 217 222 240 254 245 244 230 228 219 205 208 213 211 208 206 203 204 206 208 210 217 210 191 202 221 229 229 235 241 247 252 260 265 270 272 274 281
256 295 352 269 234 215 212 206 193 218 239 237 214 217 219 213 204 209 211 207 204 203 202 204 204 199 203 210 195 191 210 225 226 225 236 243 246 251 256 259 262 268 269 270
207 34 247 247 240 212 221 238 214 224 235 216 214 222 223 205 198 209 208 203 204 201 202 204 197 192 195 185 183 197 213 226 227 224 238 246 245 250 253 252 254 260 266 268
148 217 273 289 269 195 200 262 226 221 237 231 203 139 273 217 200 205 202 196 197 193 190 186 185 180 167 173 181 196 217 227 228 220 232 242 246 251 250 246 253 252 256 263
145 187 246 254 257 182 144 275 257 208 222 193 137 172 245 214 192 200 193 184 179 168 161 170 180 159 159 174 180 206 220 227 226 218 224 238 247 254 248 239 253 263 265 259
174 213 258 255 260 133 176 247 277 204 200 172 185 205 215 168 175 177 174 169 155 149 157 173 159 150 161 170 196 213 209 203 207 214 224 238 254 259 263 263 270 273 276 277
158 188 252 254 146 180 224 268 287 243 201 195 212 211 166 166 169 161 156 153 150 147 153 151 150 152 160 183 200 176 157 163 186 217 240 239 258 285 287 281 287 291 294 298
190 213 234 220 216 245 259 271 272 254 234 201 202 201 189 179 172 167 161 157 151 146 140 137 151 157 163 183 161 143 138 146 148 90 35 2 303 310 324 330 310 305 306 303
252 268 267 262 255 260 251 254 271 263 243 193 200 198 187 178 174 168 163 159 150 144 144 150 154 154 161 153 145 139 139 140 121 97 58 38 41 44 39 3 344 332 327 313
265 279 303 298 282 295 299 294 291 283 239 213 200 198 188 183 181 176 166 161 158 157 156 157 150 146 146 145 139 133 129 123 109 96 84 54 48 61 68 48 68 39 324 306
249 257 260 282 297 306 301 295 286 281 275 242 208 203 191 189 183 173 167 159 157 156 153 153 148 144 144 144 140 134 129 125 117 105 86 74 70 48 42 54 49 46 38 31
257 278 270 277 290 290 284 281 276 261 250 247 231 205 191 188 179 169 165 165 167 164 157 151 146 144 146 143 137 133 134 132 120 110 101 88 80 82 43 15 24 31 31 34
285 298 291 288 288 293 287 283 279 271 258 241 228 205 185 177 168 173 178 175 161 151 149 149 145 147 149 140 131 127 127 128 124 115 108 98 89 82 77 62 31 5 8 23
304 293 276 286 293 297 297 295 290 280 269 251 218 197 186 181 183 184 169 151 145 146 150 151 148 151 150 139 132 130 127 123 118 112 104 98 91 83 76 70 61 29 10 12
307 306 302 303 305 307 307 298 286 280 269 248 223 209 199 188 174 157 154 156 156 162 162 157 155 155 149 139 132 129 131 135 128 118 107 99 92 90 83 77 66 49 34 14
326 328 327 323 317 312 304 292 280 276 269 250 231 203 170 154 150 156 162 164 159 156 156 155 153 151 147 143 138 135 130 135 130 118 113 113 109 104 100 93 81 63 34 27
304 299 296 297 303 306 306 303 297 288 273 257 216 172 169 170 172 169 159 146 136 136 148 150 148 145 143 142 137 134 131 128 129 128 125 121 119 116 110 102 90 76 32 19
333 329 322 314 308 302 302 305 302 294 285 241 196 192 188 181 168 157 152 153 155 158 164 161 155 145 144 152 143 134 134 133 129 128 128 129 122 118 117 115 102 76 43 21
339 338 334 328 325 319 312 311 310 305 288 230 197 185 176 168 158 156 159 163 167 158 154 156 148 145 147 155 146 137 139 139 139 138 135 135 139 141 142 142 143 150 358 343
330 330 331 331 327 324 318 313 313 307 294 231 192 189 177 162 157 155 155 153 150 143 152 154 148 147 148 153 148 139 142 143 145 148 149 151 153 157 164 174 186 218 255 284
320 321 325 328 329 329 325 321 317 310 297 256 181 155 150 153 154 151 148 148 152 154 148 146 148 157 159 150 141 144 146 148 149 151 155 159 163 170 182 191 204 226 245 261
314 315 318 323 325 322 322 327 329 319 293 241 181 163 159 158 158 154 149 147 152 158 148 150 162 163 158 147 146 149 152 153 156 161 165 169 174 178 187 199 210 225 242 257
308 311 313 316 322 326 328 328 329 325 320 311 172 155 147 141 134 123 128 154 159 154 150 161 166 165 156 145 149 151 155 159 161 164 167 170 176 182 191 200 215 231 244 259
298 301 306 313 317 314 312 317 326 337 359 35 78 109 127 140 144 142 142 152 158 151 152 170 170 166 154 149 155 158 161 167 168 166 170 173 179 186 194 202 212 229 243 257
288 289 288 286 285 290 296 302 306 309 313 94 81 95 108 115 129 138 142 149 156 156 155 156 159 157 152 158 161 164 165 169 172 172 173 175 180 184 191 200 216 222 239 257
282 280 279 284 286 280 280 278 274 266 226 169 141 137 134 132 134 139 142 146 149 148 147 146 146 149 154 159 161 162 162 163 165 168 169 171 173 181 189 195 201 215 234 261